DateTimeUTC,F1_A11,F1_S11,BsB_S11,BsG_S11,BsR_S11,BbsB_S11,BbsG_S11,BbsR_S11,BaB_A11,BaG_A11,BaR_A11,Tu_S11,T_S11,Uu_S11,U_S11,P_S11,T1_A11
2021-03-30T07:00:00Z,00000200,21000000,,,,,,,0000.09,0000.15,0000.34,15.8,23.5,,00.0,0650.7,30.9
2021-03-30T07:01:00Z,00000200,21000000,,,,,,,0000.89,0000.94,0000.40,15.9,23.5,,00.0,0650.7,30.9
2021-03-30T07:02:00Z,00000200,21000000,,,,,,,0000.33,-000.10,0000.42,15.9,23.5,,00.0,0650.7,30.9
2021-03-30T07:03:00Z,00000200,61000000,,,,,,,-000.29,-000.19,0000.01,15.9,23.5,,00.0,0650.7,30.9
2021-03-30T07:04:00Z,00000200,41000000,0000.49,0000.15,0000.02,0000.25,0000.33,-000.12,0001.08,0001.13,0000.48,16.2,23.4,,00.0,0651.5,30.9
2021-03-30T07:05:00Z,00000200,01000000,0000.15,0000.38,0000.42,-000.10,-000.02,-000.07,0001.02,0001.04,0000.75,16.2,23.3,,00.0,0651.6,30.9
2021-03-30T07:06:00Z,00000200,01000000,-000.09,0000.26,0000.38,-000.03,0000.26,0000.09,0000.76,0000.41,0000.25,16.2,23.3,,00.0,0651.6,30.9
2021-03-30T07:07:00Z,00000200,01000000,0000.44,0000.44,0000.20,0000.04,0000.07,0000.03,-000.86,-000.54,-000.57,16.1,23.3,,00.0,0651.6,30.9
2021-03-30T07:08:00Z,00000200,01000000,0000.59,-000.05,0000.43,0000.32,0000.08,-000.02,-000.77,-000.99,-000.42,16.1,23.3,,00.0,0651.6,30.9
2021-03-30T07:09:00Z,00000200,01000000,0000.06,0000.27,0000.31,0000.02,-000.05,0000.09,0000.07,0000.29,0000.10,16.0,23.2,,00.0,0651.6,30.9
2021-03-30T07:10:00Z,00000200,01000000,-000.15,0000.15,0000.24,0000.59,0000.15,-000.02,-000.04,-000.15,-000.04,16.0,23.2,,00.0,0651.6,30.8
2021-03-30T07:11:00Z,00000200,01000000,-000.15,0000.24,0000.26,0000.23,0000.22,0000.19,-000.49,-000.45,-000.41,16.0,23.2,,00.0,0651.6,30.8
2021-03-30T07:12:00Z,00000200,01000000,-000.08,0000.35,0000.27,0000.23,0000.17,-000.02,-000.75,-000.69,-000.17,16.0,23.2,,00.0,0651.7,30.9
2021-03-30T07:13:00Z,00000200,01000000,0000.47,0000.12,0000.38,0000.42,0000.14,0000.41,-000.48,-000.18,-000.45,16.1,23.2,,00.0,0651.7,30.9
2021-03-30T07:14:00Z,00000200,01000000,0000.14,0000.18,0000.17,-000.04,0000.33,-000.06,-000.16,-000.46,-000.16,16.1,23.2,,00.0,0651.7,30.9
2021-03-30T07:15:00Z,00000200,01000000,0000.23,0000.23,0000.18,-000.20,0000.15,-000.19,-000.34,-000.42,-000.45,16.2,23.2,,00.0,0651.7,30.9
2021-03-30T07:16:00Z,00000200,01000000,0000.10,0000.45,0000.31,0000.31,0000.19,-000.02,-000.76,0000.02,-000.32,16.3,23.3,,00.0,0651.7,30.9
2021-03-30T07:17:00Z,00000200,01000000,0000.58,0000.69,0000.19,-000.27,0000.10,0000.19,0000.03,-000.07,0000.10,16.3,23.3,,00.0,0651.7,30.9
2021-03-30T07:18:00Z,00000200,01000000,0000.34,0000.14,0000.17,0000.00,-000.03,0000.04,-000.02,0000.04,-000.19,16.3,23.3,,00.0,0651.7,30.9
2021-03-30T07:19:00Z,00000200,01000000,0000.28,0000.73,0000.48,0000.31,0000.17,0000.03,0000.30,0000.15,0000.27,16.2,23.3,,00.0,0651.7,30.9
2021-03-30T07:20:00Z,00000200,01000000,-000.01,0000.39,0000.13,-000.25,0000.07,-000.17,0000.53,0000.18,0000.02,16.2,23.3,,00.0,0651.7,30.9
2021-03-30T07:21:00Z,00000200,01000000,0000.61,0000.40,0000.20,0000.12,0000.17,-000.19,0000.43,0000.54,0000.41,16.1,23.3,,00.0,0651.7,30.9
2021-03-30T07:22:00Z,00000200,01000000,0000.39,0000.36,0000.32,0000.15,0000.05,0000.05,0000.13,-000.33,0000.01,16.1,23.2,,00.0,0651.7,30.9
2021-03-30T07:23:00Z,00000200,01000000,0000.23,0000.24,0000.14,0000.18,0000.02,-000.15,0000.48,0000.86,0000.60,16.1,23.2,,00.0,0651.6,30.9
2021-03-30T07:24:00Z,00000200,01000000,0000.66,0000.31,0000.25,0000.33,-000.03,-000.06,0001.50,0001.11,0000.87,16.0,23.2,,00.0,0651.6,30.8
2021-03-30T07:25:00Z,00000200,01000000,0000.50,0000.44,0000.25,0000.37,0000.47,0000.11,0001.33,0001.30,0001.09,16.0,23.2,,00.0,0651.6,30.8
2021-03-30T07:26:00Z,00000200,01000000,-000.15,0000.31,0000.27,0000.36,0000.25,-000.03,0001.24,0000.96,0000.90,16.0,23.1,,00.0,0651.6,30.9
2021-03-30T07:27:00Z,00000200,01000000,0000.53,0000.48,0000.41,0000.10,0000.00,0000.26,0000.57,0000.88,0000.30,16.1,23.1,,00.0,0651.6,30.9
2021-03-30T07:28:00Z,00000200,01000000,0000.60,0000.14,0000.34,0000.28,-000.07,0000.21,0000.85,0000.80,0000.86,16.1,23.2,,00.0,0651.7,30.9
2021-03-30T07:29:00Z,00000200,01000000,0000.41,0000.30,0000.31,0000.56,0000.15,0000.39,0000.49,0000.16,0000.23,16.2,23.2,,00.0,0651.6,30.9
2021-03-30T07:30:00Z,00000200,01000000,0000.08,0000.40,0000.23,-000.19,0000.13,-000.07,0000.03,0000.09,-000.07,16.2,23.2,,00.0,0651.6,30.9
2021-03-30T07:31:00Z,00000200,01000000,0000.39,0000.15,0000.12,0000.24,0000.12,-000.06,0000.04,0000.08,0000.20,16.3,23.2,,00.0,0651.6,30.9
2021-03-30T07:32:00Z,00000200,01000000,0000.43,0000.31,0000.68,0000.47,0000.25,-000.12,0000.12,0000.17,-000.33,16.4,23.3,,00.0,0651.6,30.9
2021-03-30T07:33:00Z,00000200,01000000,-000.03,0000.12,0000.46,-000.26,0000.03,-000.09,-000.22,-000.52,0000.28,16.4,23.3,,00.0,0651.6,30.9
2021-03-30T07:34:00Z,00000200,01000000,0000.56,0000.46,0000.40,0000.34,0000.23,-000.05,-000.48,0000.06,-000.36,16.4,23.3,,00.0,0651.6,30.9
2021-03-30T07:35:00Z,00000200,01000000,0000.48,0000.40,-000.16,0000.23,0000.24,-000.24,-000.25,-000.64,-000.27,16.4,23.3,,00.0,0651.6,30.9
2021-03-30T07:36:00Z,00000200,01000000,0000.26,0000.15,0000.30,0000.79,0000.17,0000.09,-000.85,-001.09,-001.06,16.3,23.3,,00.0,0651.6,30.9
2021-03-30T07:37:00Z,00000200,01000000,0000.76,-000.10,0000.26,0000.37,0000.02,0000.09,-000.77,-000.16,-000.23,16.3,23.3,,00.0,0651.6,30.9
2021-03-30T07:38:00Z,00000200,01000000,-000.01,0000.27,0000.44,-000.37,0000.12,0000.11,-000.21,-000.14,-000.20,16.2,23.2,,00.0,0651.6,30.9
2021-03-30T07:39:00Z,00000200,01000000,0000.53,0000.41,0000.15,0000.14,-000.04,0000.13,0000.23,-000.18,0000.19,16.2,23.2,,00.0,0651.5,30.9
2021-03-30T07:40:00Z,00000200,01000000,-000.02,0000.38,0000.12,0000.13,0000.20,-000.02,-000.43,0000.15,-000.04,16.1,23.2,,00.0,0651.5,30.9
2021-03-30T07:41:00Z,00000200,01000000,0000.33,0000.37,0000.27,0000.16,0000.15,0000.23,-000.17,-000.06,0000.14,16.2,23.2,,00.0,0651.5,30.9
2021-03-30T07:42:00Z,00000200,01000000,0000.09,0000.50,0000.23,0000.39,0000.02,-000.15,0000.44,-000.24,-000.09,16.2,23.2,,00.0,0651.5,30.9
2021-03-30T07:43:00Z,00000200,01000000,0000.11,0000.04,0000.37,-000.51,-000.04,0000.16,-000.34,0000.32,0000.17,16.2,23.2,,00.0,0651.5,30.9
2021-03-30T07:44:00Z,00000200,01000000,0000.42,-000.01,0000.15,0000.23,0000.31,-000.26,0000.16,0000.08,0000.03,16.2,23.2,,00.0,0651.5,30.9
2021-03-30T07:45:00Z,00000200,01000000,-000.15,0000.25,0000.31,0000.35,0000.16,0000.28,0000.95,0000.93,0000.54,16.2,23.2,,00.0,0651.4,30.9
2021-03-30T07:46:00Z,00000200,01000000,0000.60,0000.17,0000.42,0000.26,0000.18,0000.04,0000.51,0000.29,0000.02,16.2,23.2,,00.0,0651.4,30.9
2021-03-30T07:47:00Z,00000200,01000000,0000.18,0000.57,0000.18,0000.13,0000.11,0000.06,0000.35,0000.21,0000.38,16.2,23.2,,00.0,0651.4,30.9
2021-03-30T07:48:00Z,00000200,01000000,0000.12,0000.23,0000.21,0000.26,0000.06,0000.15,0000.16,0000.18,0000.13,16.1,23.2,,00.0,0651.4,30.9
2021-03-30T07:49:00Z,00000200,01000000,0000.18,-000.09,0000.42,0000.40,0000.24,0000.15,0000.04,-000.46,-000.13,16.1,23.2,,00.0,0651.5,30.9
2021-03-30T07:50:00Z,00000200,01000000,0000.44,0000.30,0000.35,0000.03,-000.03,-000.20,-000.80,-000.62,-000.24,16.0,23.1,,00.0,0651.5,30.9
2021-03-30T07:51:00Z,00000200,01000000,0000.77,0000.57,0000.33,0000.20,0000.23,0000.04,0000.02,0000.19,-000.23,16.0,23.1,,00.0,0651.5,30.8
2021-03-30T07:52:00Z,00000200,01000000,0000.03,0000.45,0000.11,0000.07,0000.29,-000.47,0000.12,0000.05,0000.26,15.9,23.1,,00.0,0651.5,30.8
2021-03-30T07:53:00Z,00000200,01000000,0000.92,0000.12,-000.13,0000.30,0000.29,0000.10,-000.15,0000.21,-000.00,15.9,23.1,,00.0,0651.5,30.8
2021-03-30T07:54:00Z,00000200,01000000,0000.48,0000.31,0000.09,0000.11,0000.19,-000.07,-000.39,-000.46,-000.62,15.9,23.0,,00.0,0651.5,30.8
2021-03-30T07:55:00Z,00000200,01000000,-000.12,0000.44,0000.28,0000.04,-000.00,-000.04,-000.72,-000.51,-000.38,15.8,23.0,,00.0,0651.5,30.8
2021-03-30T07:56:00Z,00000200,01000000,0000.19,0000.18,0000.24,0000.75,0000.24,-000.04,0000.83,0000.55,0000.66,15.8,23.0,,00.0,0651.5,30.8
2021-03-30T07:57:00Z,00000200,41000000,,,,,,,0000.33,0000.38,0000.72,15.9,23.1,,00.0,0651.4,30.8
2021-03-30T07:58:00Z,00000200,61000000,,,,,,,-000.21,-000.09,-000.63,15.6,23.2,,00.0,0650.5,30.8
2021-03-30T07:59:00Z,00000200,21000000,,,,,,,-000.02,-000.09,0000.01,15.6,23.3,,00.0,0650.5,30.9
